Regional Weather Roundup
Issued by NWS

Home | Current Version | Previous Version | Graphics & Text | Print | Product List | Glossary On
Versions: 1 2 3 4 5 6 7 8 9 10 11 12 13 14 15 16 17 18 19 20 21 22 23 24 25 26 27 28 29 30 31 32 33 34 35 36 37 38 39 40 41 42 43 44 45 46 47 48 49 50
000
ASUS43 KTOP 261908
RWRKS

WEATHER ROUNDUP FOR KANSAS
NATIONAL WEATHER SERVICE GOODLAND KS
200 PM CDT SUN MAR 26 2017

NOTE:  "FAIR" INDICATES FEW OR NO CLOUDS BELOW 12,000 FEET WITH NO
SIGNIFICANT WEATHER AND/OR OBSTRUCTIONS TO VISIBILITY.

KSZ001>006-013>018-027>032-041>047-262000-
NORTHWEST KANSAS

CITY           SKY/WX    TMP DP  RH WIND       PRES   REMARKS
GOODLAND       CLOUDY    45  41  86 NE9       29.87R
HAYS             N/A     50  41  71 NE15      29.86F
HILL CITY      LGT RAIN  46  42  86 E10       29.89S
RUSSELL        CLOUDY    48  41  76 NE15      29.86F
$$

KSZ061>065-074>080-084>089-262000-
SOUTHWEST KANSAS

CITY           SKY/WX    TMP DP  RH WIND       PRES   REMARKS
DODGE CITY     CLOUDY    47  42  83 NE10      29.80S
ELKHART          N/A     49  34  56 N14         N/A
GARDEN CITY    FOG       42  41  96 E17       29.80S VSB 1/2
GREAT BEND     CLOUDY    51  43  74 NE17      29.83F
LIBERAL        SUNNY     57  45  62 NE20      29.72F
PRATT          CLOUDY    50  41  71 E10G17    29.80S
$$

KSZ066>073-081>083-090>101-262000-
SOUTHEAST KANSAS

CITY           SKY/WX    TMP DP  RH WIND       PRES   REMARKS
CHANUTE        MOSUNNY   56  46  69 VRB3      29.90F
COFFEYVILLE    CLOUDY    63  48  58 E8        29.89F
HUTCHINSON     CLOUDY    55  45  68 E14G21    29.84F
MEDICINE LODGE   N/A     58  45  62 E8G16     29.78R
NEWTON         CLOUDY    50  47  89 E13       29.86F
PARSONS        CLOUDY    60  47  61 VRB6      29.90F
WICHITA INTL   CLOUDY    57  47  69 E14       29.82F
WICHITA JABRA  CLOUDY    55  47  74 E10       29.84F
WICHITA MCCONL CLOUDY    57  46  67 E14       29.82F
WINFIELD       MOSUNNY   66  46  48 E12G25    29.82F
$$

KSZ007>012-019>026-033>040-048>060-102>105-262000-
NORTHEAST KANSAS

CITY           SKY/WX    TMP DP  RH WIND       PRES   REMARKS
CONCORDIA      CLOUDY    49  44  83 NE7       29.91F
EMPORIA        CLOUDY    50  46  86 E6        29.90F
LAWRENCE       CLOUDY    51  44  77 VRB5      29.93F
MANHATTAN      CLOUDY    50  44  80 CALM      29.91F
MARYSVILLE     CLOUDY    46  43  87 CALM      29.93R
OLATHE IND     CLOUDY    50  44  80 SW6       29.92F
OLATHE EXE     CLOUDY    49  44  83 W6        29.92F
SALINA         CLOUDY    51  44  77 E8        29.90F
TOPEKA BILLARD CLOUDY    51  45  79 W5        29.92F
TOPEKA FORBES  CLOUDY    52  45  77 CALM      29.92F
$$




USA.gov is the U.S. government's official web portal to all federal, state and local government web resources and services.